EW8903 Weather Reports


Display with metric or nautical units.
time (UTC)temp
F
wind
direction
speed
MPH
gust
MPH
rain 1hr
in
rain 24hr
in
rain mn
in
humidity
%
barometer
mb
20260415091600 0 0.0 0.0 0.00 1.04 1.04 1005.3
20260415090053 51 6 0.0 2.0 0.00 1.04 1.04 97 1005.9
20260415084604 51 5 1.0 4.0 0.00 1.04 1.04 98 1005.7
20260415083119 50 6 0.0 1.0 0.00 1.04 1.04 98 1006.0
20260415081555 50 8 0.0 1.0 0.00 1.04 1.04 98 1005.7
20260415080150 49 6 2.0 3.0 0.00 1.04 1.04 98 1005.5
20260415074547 49 6 5.0 8.0 0.00 1.04 1.04 98 1005.5
20260415073047 49 6 9.0 10.0 0.00 1.15 1.04 98 1005.6
20260415071544 49 3 8.0 12.0 0.02 1.15 1.04 98 1005.7
20260415070055 49 272 4.0 6.0 0.06 1.15 1.04 97 1005.4
20260415064543 49 262 1.0 6.0 0.07 1.15 1.04 97 1005.4
20260415063043 48 110 8.0 10.0 0.08 1.15 1.04 97 1003.9
20260415061511 48 65 8.0 9.0 0.07 1.13 1.02 97 1004.6
20260415060009 51 94 6.0 7.0 0.05 1.10 0.98 97 1006.0
20260415054540 52 101 11.0 12.0 0.08 1.08 0.96 97 1004.7
20260415053038 53 84 14.0 16.0 0.13 1.08 0.96 97 1005.3
20260415051538 53 82 7.0 8.0 0.20 1.07 0.95 97 1005.8
20260415050035 53 82 7.0 10.0 0.24 1.05 0.93 97 1006.3
20260415044537 54 70 7.0 9.0 0.42 1.00 0.88 97 1006.9
20260415043033 56 11 2.0 6.0 0.59 0.95 0.83 97 1007.2
20260415041533 57 9 4.0 10.0 0.54 0.87 0.75 97 1007.1
20260415040031 56 356 6.0 6.0 0.55 0.81 0.69 96 1007.7
20260415034532 56 354 9.0 24.0 0.45 0.56 0.45 94 1008.3
20260415033029 57 104 12.0 20.0 0.24 0.36 0.24 90 1006.5
20260415031522 58 92 11.0 15.0 0.21 0.33 0.21 90 1006.2
20260415030019 58 217 1.0 13.0 0.13 0.25 0.13 91 1006.6
20260415024518 57 103 14.0 16.0 0.00 0.12 0.00 91 1006.2
20260415023019 57 118 10.0 12.0 0.00 0.12 0.00 91 1007.4
20260415021523 57 126 9.0 11.0 0.00 0.12 0.00 93 1007.6
20260415020020 57 102 12.0 16.0 0.00 0.12 0.00 91 1007.0
20260415014515 58 102 14.0 19.0 0.00 0.12 0.00 92 1006.8
20260415013015 55 34 4.0 6.0 0.00 0.12 0.00 96 1007.2
20260415011517 51 19 7.0 8.0 0.00 0.12 0.00 95 1007.3
20260415010015 50 11 11.0 13.0 0.00 0.12 0.00 93 1007.2
20260415004512 52 9 11.0 11.0 0.00 0.12 0.00 91 1007.1
20260415003032 53 356 9.0 11.0 0.00 0.12 0.00 91 1007.2
20260415001544 54 6 5.0 5.0 0.00 0.12 0.00 91 1007.0
20260415000104 55 9 4.0 5.0 0.00 0.12 0.00 91 1007.1
20260414234541 53 11 4.0 7.0 0.00 0.12 0.00 92 1007.2
20260414233040 53 9 4.0 5.0 0.00 0.12 0.00 91 1007.0
20260414231540 52 13 4.0 5.0 0.00 0.12 0.00 91 1007.4
20260414230040 52 8 5.0 7.0 0.00 0.12 0.00 90 1007.6
20260414224542 52 6 7.0 9.0 0.00 0.12 0.00 90 1007.7
20260414223043 53 358 7.0 11.0 0.00 0.12 0.00 90 1007.9
20260414221532 55 1 10.0 12.0 0.00 0.12 0.00 84 1007.8
20260414220030 68 22 3.0 11.0 0.00 0.12 0.00 65 1007.8
20260414214556 72 256 4.0 7.0 0.00 0.12 0.00 71 1007.8
20260414213052 62 256 0.0 8.0 0.00 0.12 0.00 84 1007.9
20260414211550 61 110 5.0 7.0 0.00 0.12 0.00 83 1008.0
20260414210050 60 111 4.0 0.0 0.00 0.00 0.00 84 1008.0
20260414204549 60 111 5.0 9.0 0.00 0.12 0.00 83 1008.4
20260414203047 59 98 9.0 12.0 0.00 0.12 0.00 83 1008.4
20260414201552 58 99 10.0 12.0 0.00 0.12 0.00 86 1008.3
20260414201549 58 98 10.0 12.0 0.00 0.12 0.00 86 1008.3
20260414200044 59 103 8.0 17.0 0.00 0.12 0.00 85 1008.4
20260414194543 57 96 12.0 14.0 0.00 0.12 0.00 86 1008.5
20260414193043 56 103 10.0 14.0 0.00 0.12 0.00 90 1008.8
20260414191544 57 102 12.0 14.0 0.00 0.12 0.00 90 1009.1
20260414190022 56 103 11.0 12.0 0.00 0.12 0.00 92 1009.1
20260414184522 56 96 10.0 13.0 0.00 0.12 0.00 92 1009.0
20260414183007 56 143 2.0 11.0 0.00 0.12 0.00 93 1009.1
20260414181505 56 98 8.0 10.0 0.00 0.12 0.00 92 1009.1
20260414180004 58 97 10.0 11.0 0.00 0.12 0.00 88 1008.8
20260414174556 60 112 7.0 9.0 0.00 0.12 0.00 84 1008.7
20260414173051 61 106 6.0 7.0 0.00 0.12 0.00 83 1008.8
20260414171552 64 143 2.0 6.0 0.00 0.12 0.00 75 1008.9
20260414170049 67 84 4.0 7.0 0.00 0.12 0.00 69 1009.1
20260414164546 69 282 3.0 6.0 0.00 0.12 0.00 69 1009.2
20260414163040 68 274 1.0 7.0 0.00 0.12 0.00 72 1009.3
20260414161536 66 300 1.0 8.0 0.00 0.12 0.00 74 1009.3
20260414160034 65 287 5.0 9.0 0.00 0.12 0.00 76 1009.0
20260414154532 65 307 4.0 11.0 0.00 0.12 0.00 78 1008.9
20260414153032 65 317 4.0 11.0 0.00 0.12 0.00 78 1008.6
20260414151529 65 8 5.0 13.0 0.00 0.12 0.00 78 1008.6
20260414150025 65 297 8.0 13.0 0.00 0.12 0.00 78 1008.4
20260414144524 64 294 7.0 16.0 0.00 0.12 0.00 79 1008.1
20260414143019 64 316 8.0 18.0 0.00 0.12 0.00 78 1007.8
20260414141516 64 281 8.0 15.0 0.00 0.12 0.00 79 1007.3
20260414140011 64 291 6.0 14.0 0.00 0.12 0.00 78 1007.1
20260414134508 64 271 7.0 15.0 0.00 0.12 0.00 79 1007.0
20260414133005 64 260 11.0 19.0 0.00 0.12 0.00 79 1006.6
20260414131558 63 266 9.0 16.0 0.00 0.12 0.00 82 1006.3
20260414130104 63 262 7.0 12.0 0.00 0.12 0.00 85 1005.8
20260414124559 63 271 5.0 12.0 0.00 0.12 0.00 88 1005.6
20260414123049 61 271 5.0 10.0 0.00 0.12 0.00 91 1005.4
20260414121543 61 261 4.0 6.0 0.00 0.12 0.00 92 1004.8
20260414120043 0 0.0 0.0 0.00 0.12 0.00 1004.0
20260414114539 0 0.0 0.0 0.00 0.12 0.00 1003.0
20260414113002 0 0.0 0.0 0.00 0.12 0.00 1003.7
20260414111614 0 0.0 0.0 0.00 0.12 0.00 1003.8
20260414110059 0 0.0 0.0 0.00 0.12 0.00 1004.9
20260414104550 0 0.0 0.0 0.00 0.12 0.00 1004.9
20260414103051 0 0.0 0.0 0.00 0.12 0.00 1005.1
20260414101547 0 0.0 0.0 0.00 0.12 0.00 1005.0
20260414100037 0 0.0 0.0 0.00 0.12 0.00 1005.8
20260414094531 0 0.0 0.0 0.00 0.12 0.00 1004.3
20260414093033 0 0.0 0.0 0.00 0.13 0.12 1004.3